{"data":{"norad_id":59955,"intl_designator":"2024-107L","name":"STARLINK-11144 [DTC]","alt_names":[],"object_type":"PAYLOAD","status":"ACTIVE","operator":null,"country":"US","launch_date":"2024-06-05","launch_site_code":"AFETR","launch_vehicle":null,"mission":null,"orbit_class":"UNKNOWN","rcs_meters":null,"size_class":null,"mass_kg":null,"dimensions":null,"purposes":["comms"],"wikipedia_slug":null,"has_3d_model":false,"image_url":null,"decayed_at":null,"tle_current":{"epoch":"2026-09-21T12:06:41.171616Z","epoch_age_seconds":90884,"freshness":"FRESH","line1":"1 59955U 24107L   26264.50464319 -.00001263  00000+0 -55740-5 0  9998","line2":"2 59955  53.1586   5.7725 0000764  74.6087 285.5015 15.69706645132964","mean_motion":15.69706645,"eccentricity":7.64e-5,"inclination_deg":53.1586,"raan_deg":5.7725,"arg_perigee_deg":74.6087,"mean_anomaly_deg":285.5015,"bstar":-5.574e-6,"rev_number":13296,"period_min":91.736886289349,"perigee_km":359.22157763863,"apogee_km":360.25112468668,"semimajor_km":6737.8733511627,"source":"CELESTRAK","updated_at":"2026-09-22T09:00:49.117161Z"}}}